Location: Leeds
(37.2390°N, 113.3580°W)
Time: 06:11:33
(UTC-06:00)

SL-08 RB Rocket - Visible Passes

Search period start: 28 August 2016 00:00
Search period end: 07 September 2016 00:00
Orbit: 648 x 685 km, 98.0° (Epoch: 28 August)

Date Brightness Start Highest point End Pass type
(mag) Time Alt. Az. Time Alt. Az. Time Alt. Az.
28 Aug 5.2 22:44:03 30° NNE 22:44:03 30° NNE 22:46:36 10° N visible
29 Aug 6.0 21:38:07 10° NE 21:38:07 10° NE 21:38:10 10° NE visible
29 Aug 5.6 23:16:16 28° NNW 23:16:16 28° NNW 23:18:26 10° NNW visible
30 Aug 5.6 22:10:19 19° NE 22:10:19 19° NE 22:12:19 10° NNE visible
30 Aug 6.3 23:48:29 17° NW 23:48:29 17° NW 23:49:48 10° NNW visible
31 Aug 5.4 22:42:32 26° NNE 22:42:32 26° NNE 22:44:44 10° N visible
01 Sep 5.8 23:14:46 24° NNW 23:14:46 24° NNW 23:16:36 10° NNW visible
02 Sep 5.7 22:08:50 17° NE 22:08:50 17° NE 22:10:24 10° NNE visible
02 Sep 6.5 23:46:58 16° NW 23:46:58 16° NW 23:48:00 10° NNW visible
03 Sep 5.6 22:41:03 22° NNE 22:41:03 22° NNE 22:42:51 10° N visible
04 Sep 6.0 23:13:17 20° NNW 23:13:17 20° NNW 23:14:45 10° NNW visible
05 Sep 5.9 22:07:20 15° NNE 22:07:20 15° NNE 22:08:29 10° NNE visible
05 Sep 6.6 23:45:29 14° NW 23:45:29 14° NW 23:46:10 10° NNW visible
06 Sep 5.9 22:39:33 19° N 22:39:33 19° N 22:40:58 10° N visible
